SWR54B LSZH-KBOS

Flight info

Callsign SWR54B
Flight time N/A
Altitude 34000
Route VEBIT T10 TORPA DCT REKLA DCT RLP DCT ROTSI DCT KOTUN DCT AMAXA DCT VESAN DCT RATUK DCT SOVAT/N0478F400 L613 SANDY DCT ODVIK DCT SAM N19 ADKIK DCT FONZU DCT LESLU DCT BIBLA/M084F400 DCT DINIM/M084F390 NATG TUDEP/N0479F400 N526A TOPPS DCT AJJAY OOSHN5
Aircraft A359/H-SBDE2E3FGHIJ3J4J5LM1ORWXY/LB1D1

Departure

Time 2026-04-26 10:55
Airport Zürich Airport (LSZH)

Arrival

Time N/A
Airport Boston Logan International Airport (KBOS)
Time Latitude Longitude Altitude Speed Heading
2026-04-26 10:08 47.46141 8.55868 1411 ft 0 kts 276°
2026-04-26 10:43 47.46138 8.55902 1417 ft 4 kts 283°
2026-04-26 10:43 47.46130 8.55939 1414 ft 4 kts 296°
2026-04-26 10:44 47.46117 8.55971 1417 ft 4 kts 318°
2026-04-26 10:44 47.46100 8.55988 1416 ft 6 kts 354°
2026-04-26 10:44 47.46081 8.55988 1415 ft 6 kts
2026-04-26 10:44 47.46055 8.55989 1413 ft 4 kts 346°
2026-04-26 10:45 47.46032 8.56001 1417 ft 4 kts 321°
2026-04-26 10:45 47.46017 8.56026 1419 ft 5 kts 291°
2026-04-26 10:45 47.46011 8.56063 1419 ft 4 kts 272°
2026-04-26 10:45 47.46011 8.56102 1419 ft 4 kts 272°
2026-04-26 10:46 47.46010 8.56118 1420 ft 4 kts 276°
2026-04-26 10:49 47.46012 8.56100 1419 ft 4 kts 276°
2026-04-26 10:50 47.46014 8.56025 1419 ft 10 kts 263°
2026-04-26 10:50 47.45979 8.55974 1413 ft 12 kts 205°
2026-04-26 10:50 47.45877 8.55931 1420 ft 10 kts 171°
2026-04-26 10:50 47.45843 8.55989 1417 ft 7 kts 105°
2026-04-26 10:51 47.45835 8.56056 1418 ft 7 kts 99°
2026-04-26 10:51 47.45824 8.56197 1421 ft 8 kts 96°
2026-04-26 10:51 47.45818 8.56295 1426 ft 11 kts 95°
2026-04-26 10:52 47.45810 8.56419 1423 ft 14 kts 95°
2026-04-26 10:52 47.45799 8.56569 1424 ft 16 kts 96°
2026-04-26 10:52 47.45787 8.56742 1426 ft 18 kts 96°
2026-04-26 10:52 47.45777 8.56891 1429 ft 7 kts 96°
2026-04-26 10:53 47.45774 8.56935 1430 ft 2 kts 96°
2026-04-26 10:53 47.45773 8.56942 1430 ft 0 kts 97°
2026-04-26 10:53 47.45773 8.56943 1430 ft 1 kts 97°
2026-04-26 10:54 47.45713 8.57030 1431 ft 8 kts 173°
2026-04-26 10:54 47.45671 8.57005 1431 ft 4 kts 237°
2026-04-26 10:54 47.45667 8.56953 1430 ft 0 kts 274°
2026-04-26 10:55 47.45670 8.56908 1429 ft 29 kts 274°
2026-04-26 10:55 47.45728 8.56130 1418 ft 120 kts 276°
2026-04-26 10:55 47.45840 8.54513 1508 ft 186 kts 278°
2026-04-26 10:55 47.45928 8.53229 2095 ft 189 kts 277°
2026-04-26 10:56 47.46123 8.50661 3652 ft 191 kts 277°
2026-04-26 10:56 47.46125 8.48760 4512 ft 182 kts 258°
2026-04-26 10:56 47.45519 8.47048 4977 ft 194 kts 230°
2026-04-26 10:56 47.44551 8.45530 5238 ft 213 kts 229°
2026-04-26 10:57 47.43538 8.43829 5551 ft 233 kts 232°
2026-04-26 10:57 47.42497 8.41798 5873 ft 257 kts 236°
2026-04-26 10:57 47.41463 8.39634 6592 ft 263 kts 235°
2026-04-26 10:57 47.40389 8.37461 7463 ft 263 kts 234°
2026-04-26 10:58 47.39299 8.35264 8254 ft 267 kts 236°
2026-04-26 10:58 47.38338 8.32893 9106 ft 271 kts 243°
2026-04-26 10:58 47.37456 8.30407 9966 ft 276 kts 243°
2026-04-26 10:58 47.36563 8.27863 10619 ft 286 kts 243°
2026-04-26 10:59 47.35610 8.25176 10995 ft 306 kts 243°
2026-04-26 10:59 47.34782 8.22182 11356 ft 325 kts 255°
2026-04-26 10:59 47.34513 8.18811 11852 ft 338 kts 269°
2026-04-26 10:59 47.34619 8.15306 12603 ft 345 kts 275°
2026-04-26 11:00 47.34906 8.11754 13339 ft 351 kts 278°
2026-04-26 11:00 47.35280 8.08164 14069 ft 357 kts 279°
2026-04-26 11:00 47.35683 8.04523 14720 ft 362 kts 279°
2026-04-26 11:00 47.36086 8.00839 15368 ft 365 kts 279°
2026-04-26 11:01 47.36473 7.97118 15844 ft 369 kts 278°
2026-04-26 11:01 47.36842 7.93357 16309 ft 372 kts 278°
2026-04-26 11:01 47.37201 7.89569 16775 ft 375 kts 278°
2026-04-26 11:01 47.37555 7.85734 17242 ft 378 kts 277°
2026-04-26 11:02 47.37906 7.81882 17710 ft 380 kts 277°
2026-04-26 11:02 47.38258 7.78005 18148 ft 383 kts 277°
2026-04-26 11:02 47.38612 7.74094 18579 ft 386 kts 278°
2026-04-26 11:02 47.38969 7.70149 18986 ft 389 kts 278°
2026-04-26 11:03 47.39328 7.66186 19385 ft 391 kts 278°
2026-04-26 11:03 47.39688 7.62192 19788 ft 393 kts 278°
2026-04-26 11:03 47.40049 7.58184 20190 ft 395 kts 278°
2026-04-26 11:03 47.40411 7.54145 20564 ft 398 kts 278°
2026-04-26 11:04 47.40775 7.50089 20967 ft 400 kts 279°
2026-04-26 11:04 47.41136 7.46008 21359 ft 402 kts 279°
2026-04-26 11:04 47.41497 7.41900 21743 ft 404 kts 279°
2026-04-26 11:04 47.41856 7.37825 22120 ft 406 kts 279°
2026-04-26 11:05 47.42221 7.33692 22501 ft 408 kts 280°
2026-04-26 11:05 47.42585 7.29523 22894 ft 410 kts 280°
2026-04-26 11:05 47.42951 7.25337 23247 ft 412 kts 280°
2026-04-26 11:05 47.43315 7.21126 23593 ft 414 kts 281°
2026-04-26 11:06 47.43680 7.16899 23911 ft 416 kts 281°
2026-04-26 11:06 47.43928 7.14037 24109 ft 417 kts 281°
2026-04-26 11:06 47.44409 7.08397 24483 ft 419 kts 281°
2026-04-26 11:06 47.44771 7.04126 24767 ft 420 kts 281°
2026-04-26 11:07 47.45133 6.99831 25068 ft 422 kts 281°
2026-04-26 11:07 47.45495 6.95521 25370 ft 423 kts 281°
2026-04-26 11:07 47.45856 6.91202 25661 ft 425 kts 281°
2026-04-26 11:07 47.46219 6.86861 25966 ft 426 kts 281°
2026-04-26 11:08 47.46582 6.82502 26268 ft 428 kts 281°
2026-04-26 11:08 47.46944 6.78131 26600 ft 429 kts 281°
2026-04-26 11:08 47.47306 6.73744 26930 ft 431 kts 281°
2026-04-26 11:08 47.47667 6.69335 27250 ft 433 kts 281°
2026-04-26 11:09 47.48028 6.64919 27580 ft 434 kts 281°
2026-04-26 11:09 47.48378 6.60482 27928 ft 435 kts 280°
2026-04-26 11:09 47.48702 6.56016 28288 ft 437 kts 279°
2026-04-26 11:09 47.49014 6.51537 28632 ft 439 kts 279°
2026-04-26 11:10 47.49219 6.48561 28871 ft 440 kts 279°
2026-04-26 11:10 47.49533 6.44050 29226 ft 442 kts 279°
2026-04-26 11:10 47.49848 6.39525 29566 ft 444 kts 279°
2026-04-26 11:10 47.50164 6.34978 29921 ft 446 kts 279°
2026-04-26 11:11 47.50587 6.28921 30390 ft 448 kts 279°
2026-04-26 11:11 47.50906 6.24331 30705 ft 450 kts 278°
2026-04-26 11:11 47.51121 6.21213 30910 ft 451 kts 278°
2026-04-26 11:11 47.51440 6.16590 31242 ft 453 kts 278°
2026-04-26 11:12 47.51759 6.11949 31563 ft 454 kts 278°
2026-04-26 11:12 47.52075 6.07296 31870 ft 455 kts 278°
2026-04-26 11:12 47.52393 6.02621 32173 ft 457 kts 277°
2026-04-26 11:12 47.52704 5.97947 32464 ft 458 kts 277°
2026-04-26 11:13 47.53070 5.93254 32732 ft 459 kts 281°
2026-04-26 11:13 47.53807 5.88666 33000 ft 459 kts 289°
2026-04-26 11:13 47.55017 5.84289 33267 ft 459 kts 298°
2026-04-26 11:13 47.56673 5.80325 33519 ft 461 kts 307°
2026-04-26 11:14 47.58718 5.76658 33749 ft 462 kts 311°
2026-04-26 11:14 47.60871 5.73100 34008 ft 464 kts 312°
2026-04-26 11:14 47.63066 5.69589 34161 ft 463 kts 313°
2026-04-26 11:14 47.65231 5.66161 34196 ft 448 kts 313°
2026-04-26 11:15 47.67323 5.62842 34193 ft 434 kts 312°
2026-04-26 11:15 47.69356 5.59595 34201 ft 427 kts 312°
2026-04-26 11:15 47.73376 5.53109 34200 ft 427 kts 312°
2026-04-26 11:16 47.77387 5.46586 34202 ft 427 kts 312°
2026-04-26 11:16 47.81393 5.40054 34205 ft 427 kts 311°
2026-04-26 11:17 47.85397 5.33512 34205 ft 427 kts 311°
2026-04-26 11:17 47.89394 5.26968 34204 ft 427 kts 311°
2026-04-26 11:18 47.93387 5.20426 34211 ft 427 kts 311°
2026-04-26 11:18 47.97372 5.13863 34209 ft 426 kts 311°
2026-04-26 11:19 48.01346 5.07298 34210 ft 426 kts 311°
2026-04-26 11:19 48.05314 5.00729 34209 ft 426 kts 311°
2026-04-26 11:20 48.08609 4.95265 34210 ft 425 kts 311°
2026-04-26 11:20 48.13211 4.87619 34211 ft 425 kts 311°
2026-04-26 11:21 48.17161 4.81035 34217 ft 424 kts 311°
2026-04-26 11:21 48.21095 4.74463 34219 ft 424 kts 311°
2026-04-26 11:22 48.25025 4.67880 34218 ft 423 kts 311°
2026-04-26 11:22 48.28951 4.61293 34223 ft 423 kts 311°
2026-04-26 11:23 48.32868 4.54704 34222 ft 423 kts 311°
2026-04-26 11:23 48.36776 4.48103 34230 ft 423 kts 311°
2026-04-26 11:24 48.40681 4.41493 34230 ft 422 kts 311°
2026-04-26 11:24 48.44582 4.34876 34238 ft 422 kts 311°
2026-04-26 11:25 48.48468 4.28266 34237 ft 420 kts 311°
2026-04-26 11:25 48.52326 4.21690 34235 ft 418 kts 311°
2026-04-26 11:26 48.56169 4.15125 34246 ft 417 kts 311°
2026-04-26 11:26 48.59999 4.08565 34269 ft 416 kts 311°
2026-04-26 11:27 48.63822 4.01998 34255 ft 416 kts 311°
2026-04-26 11:27 48.67642 3.95421 34267 ft 416 kts 311°
2026-04-26 11:28 48.71480 3.88882 34250 ft 415 kts 315°
2026-04-26 11:28 48.75922 3.83320 34255 ft 414 kts 323°
2026-04-26 11:29 48.80582 3.78180 34253 ft 414 kts 324°
2026-04-26 11:29 48.85274 3.73092 34250 ft 414 kts 324°
2026-04-26 11:30 48.89287 3.68719 34245 ft 414 kts 324°
2026-04-26 11:30 48.94710 3.62768 34254 ft 413 kts 323°
2026-04-26 11:31 48.99363 3.57638 34250 ft 413 kts 323°
2026-04-26 11:31 49.04015 3.52501 34248 ft 413 kts 323°
2026-04-26 11:32 49.08659 3.47361 34249 ft 412 kts 323°
2026-04-26 11:32 49.13296 3.42216 34258 ft 412 kts 323°
2026-04-26 11:33 49.17929 3.37062 34251 ft 412 kts 323°
2026-04-26 11:33 49.22557 3.31906 34258 ft 412 kts 323°
2026-04-26 11:34 49.27184 3.26735 34256 ft 411 kts 323°
2026-04-26 11:34 49.31801 3.21563 34257 ft 411 kts 323°
2026-04-26 11:35 49.36415 3.16382 34263 ft 411 kts 323°
2026-04-26 11:35 49.40253 3.12063 34257 ft 411 kts 323°
2026-04-26 11:36 49.45614 3.06017 34258 ft 411 kts 323°
2026-04-26 11:36 49.50224 3.00805 34261 ft 411 kts 323°
2026-04-26 11:37 49.54823 2.95593 34265 ft 410 kts 323°
2026-04-26 11:37 49.59417 2.90373 34260 ft 411 kts 322°
2026-04-26 11:38 49.64009 2.85143 34261 ft 411 kts 322°
2026-04-26 11:38 49.68600 2.79901 34267 ft 410 kts 322°
2026-04-26 11:39 49.73193 2.74645 34279 ft 411 kts 322°
2026-04-26 11:39 49.77753 2.69414 34280 ft 411 kts 322°
2026-04-26 11:40 49.82411 2.64195 34284 ft 411 kts 323°
2026-04-26 11:40 49.87067 2.59070 34290 ft 411 kts 323°
2026-04-26 11:42 50.05607 2.38397 34289 ft 411 kts 323°
2026-04-26 11:43 50.10249 2.33183 34288 ft 411 kts 322°
2026-04-26 11:43 50.14885 2.27961 34288 ft 412 kts 322°
2026-04-26 11:44 50.19533 2.22714 34285 ft 412 kts 322°
2026-04-26 11:44 50.24177 2.17455 34293 ft 412 kts 322°
2026-04-26 11:45 50.28789 2.12223 34286 ft 412 kts 322°
2026-04-26 11:45 50.33441 2.06934 34297 ft 412 kts 322°
2026-04-26 11:46 50.38082 2.01635 34301 ft 412 kts 322°
2026-04-26 11:46 50.42490 1.95863 34309 ft 412 kts 316°
2026-04-26 11:47 50.46710 1.89865 34320 ft 412 kts 316°
2026-04-26 11:47 50.50992 1.83867 34318 ft 412 kts 317°
2026-04-26 11:48 50.55312 1.77921 34322 ft 412 kts 317°
2026-04-26 11:48 50.59640 1.71989 34321 ft 412 kts 317°
2026-04-26 11:49 50.63941 1.66074 34321 ft 412 kts 317°
2026-04-26 11:49 50.68263 1.60111 34315 ft 412 kts 316°
2026-04-26 11:50 50.72579 1.54132 34315 ft 413 kts 316°
2026-04-26 11:50 50.76890 1.48144 34319 ft 413 kts 316°
2026-04-26 11:51 50.81209 1.42143 34479 ft 417 kts 316°
2026-04-26 11:51 50.83392 1.39097 34595 ft 422 kts 316°
2026-04-26 11:51 50.85609 1.35999 34738 ft 428 kts 316°
2026-04-26 11:52 50.89352 1.30762 34971 ft 436 kts 316°
2026-04-26 11:52 50.91637 1.27561 35109 ft 441 kts 316°
2026-04-26 11:52 50.93943 1.24328 35239 ft 445 kts 316°
2026-04-26 11:53 50.96271 1.21060 35362 ft 450 kts 316°
2026-04-26 11:53 50.99395 1.16668 35588 ft 454 kts 316°
2026-04-26 11:53 51.01760 1.13336 35816 ft 455 kts 316°
2026-04-26 11:54 51.05288 1.07097 36257 ft 453 kts 303°
2026-04-26 11:54 51.07985 0.98092 36347 ft 452 kts 288°
2026-04-26 11:55 51.09757 0.88512 36378 ft 452 kts 285°
2026-04-26 11:55 51.10577 0.83687 36599 ft 453 kts 284°
2026-04-26 11:55 51.11393 0.78852 36906 ft 452 kts 285°
2026-04-26 11:55 51.12213 0.74021 37117 ft 452 kts 285°
2026-04-26 11:56 51.13039 0.69205 37375 ft 452 kts 285°
2026-04-26 11:56 51.13871 0.64378 37608 ft 452 kts 285°
2026-04-26 11:56 51.14707 0.59553 37853 ft 452 kts 285°
2026-04-26 11:56 51.15501 0.54786 38086 ft 452 kts 282°
2026-04-26 11:57 51.15998 0.49838 38330 ft 452 kts 275°
2026-04-26 11:57 51.16047 0.44843 38563 ft 453 kts 266°
2026-04-26 11:57 51.15695 0.39862 38775 ft 453 kts 263°
2026-04-26 11:57 51.15206 0.34818 38982 ft 454 kts 261°
2026-04-26 11:58 51.14674 0.29935 39158 ft 454 kts 261°
2026-04-26 11:58 51.14105 0.24923 39320 ft 454 kts 261°
2026-04-26 11:58 51.13548 0.20048 39491 ft 455 kts 261°
2026-04-26 11:58 51.12985 0.15090 39647 ft 455 kts 261°
2026-04-26 11:59 51.12427 0.10119 39854 ft 455 kts 261°
2026-04-26 11:59 51.11875 0.05164 39995 ft 456 kts 261°
2026-04-26 11:59 51.11323 0.00200 40157 ft 456 kts 261°
2026-04-26 11:59 51.10769 -0.04779 40288 ft 457 kts 261°
2026-04-26 12:00 51.10213 -0.09756 40320 ft 458 kts 261°
2026-04-26 12:00 51.09091 -0.19732 40319 ft 458 kts 261°
2026-04-26 12:01 51.07962 -0.29696 40321 ft 458 kts 261°
2026-04-26 12:01 51.06824 -0.39660 40317 ft 458 kts 261°
2026-04-26 12:02 51.05677 -0.49613 40306 ft 457 kts 260°
2026-04-26 12:02 51.04523 -0.59555 40310 ft 457 kts 260°
2026-04-26 12:03 51.03362 -0.69479 40313 ft 457 kts 260°
2026-04-26 12:03 51.02188 -0.79409 40296 ft 457 kts 260°
2026-04-26 12:04 51.01010 -0.89332 40299 ft 457 kts 260°
2026-04-26 12:04 50.99821 -0.99259 40312 ft 457 kts 260°
2026-04-26 12:05 50.98625 -1.09167 40314 ft 457 kts 260°
2026-04-26 12:05 50.97423 -1.19069 40315 ft 457 kts 259°
2026-04-26 12:06 50.96211 -1.28970 40322 ft 457 kts 259°
2026-04-26 12:06 50.94988 -1.38874 40321 ft 457 kts 259°
2026-04-26 12:07 50.93731 -1.48754 40320 ft 457 kts 259°
2026-04-26 12:07 50.92457 -1.58633 40317 ft 457 kts 259°
2026-04-26 12:08 50.91180 -1.68503 40298 ft 457 kts 259°
2026-04-26 12:08 50.89896 -1.78384 40294 ft 458 kts 259°
2026-04-26 12:09 50.88603 -1.88254 40293 ft 458 kts 259°
2026-04-26 12:09 50.87311 -1.98055 40294 ft 458 kts 258°
2026-04-26 12:10 50.86005 -2.07919 40297 ft 458 kts 258°
2026-04-26 12:10 50.84684 -2.17803 40294 ft 458 kts 258°
2026-04-26 12:11 50.83359 -2.27634 40296 ft 458 kts 258°
2026-04-26 12:11 50.82023 -2.37493 40293 ft 458 kts 258°
2026-04-26 12:12 50.80679 -2.47353 40291 ft 458 kts 258°
2026-04-26 12:12 50.79837 -2.57240 40291 ft 457 kts 270°
2026-04-26 12:13 50.79943 -2.67300 40290 ft 457 kts 271°
2026-04-26 12:13 50.80195 -2.77363 40288 ft 458 kts 272°
2026-04-26 12:14 50.80448 -2.87399 40286 ft 458 kts 271°
2026-04-26 12:14 50.80678 -2.97487 40285 ft 458 kts 271°
2026-04-26 12:15 50.80889 -3.07581 40289 ft 458 kts 271°
2026-04-26 12:15 50.81088 -3.17609 40290 ft 458 kts 271°
2026-04-26 12:16 50.81279 -3.27695 40291 ft 458 kts 271°
2026-04-26 12:16 50.81462 -3.37716 40290 ft 458 kts 271°
2026-04-26 12:17 50.81637 -3.47802 40292 ft 458 kts 271°
2026-04-26 12:17 50.81804 -3.57888 40291 ft 458 kts 270°
2026-04-26 12:18 50.81963 -3.67991 40288 ft 458 kts 270°
2026-04-26 12:18 50.82110 -3.78018 40285 ft 459 kts 270°
2026-04-26 12:19 50.82249 -3.88115 40278 ft 459 kts 270°
2026-04-26 12:19 50.82569 -3.98206 40277 ft 459 kts 274°
2026-04-26 12:20 50.83258 -4.08228 40277 ft 460 kts 275°
2026-04-26 12:20 50.83945 -4.18288 40275 ft 460 kts 274°
2026-04-26 12:21 50.84559 -4.28356 40272 ft 460 kts 274°
2026-04-26 12:21 50.85136 -4.38436 40273 ft 460 kts 274°
2026-04-26 12:22 50.85698 -4.48519 40275 ft 460 kts 274°
2026-04-26 12:22 50.86252 -4.58533 40274 ft 460 kts 274°
2026-04-26 12:23 50.86802 -4.68611 40280 ft 460 kts 273°
2026-04-26 12:23 50.87344 -4.78706 40283 ft 460 kts 273°
2026-04-26 12:24 50.87878 -4.88803 40284 ft 460 kts 273°
2026-04-26 12:24 50.88402 -4.98899 40285 ft 460 kts 273°
2026-04-26 12:25 50.89174 -5.14068 40282 ft 460 kts 273°
2026-04-26 12:25 50.89677 -5.24176 40286 ft 461 kts 273°
2026-04-26 12:26 50.90172 -5.34304 40287 ft 461 kts 272°
2026-04-26 12:26 50.90658 -5.44418 40285 ft 461 kts 272°
2026-04-26 12:27 50.91136 -5.54546 40286 ft 461 kts 272°
2026-04-26 12:27 50.91605 -5.64680 40286 ft 461 kts 272°
2026-04-26 12:28 50.92063 -5.74761 40288 ft 462 kts 272°
2026-04-26 12:28 50.92514 -5.84909 40291 ft 462 kts 272°
2026-04-26 12:29 50.92957 -5.95063 40293 ft 462 kts 272°
2026-04-26 12:30 50.93606 -6.10313 40290 ft 462 kts 272°
2026-04-26 12:30 50.94028 -6.20479 40289 ft 462 kts 272°
2026-04-26 12:31 50.94644 -6.35751 40293 ft 463 kts 272°
2026-04-26 12:31 50.95045 -6.45941 40295 ft 463 kts 272°
2026-04-26 12:32 50.95436 -6.56140 40289 ft 464 kts 271°
2026-04-26 12:33 50.96008 -6.71455 40291 ft 464 kts 271°
2026-04-26 12:33 50.96378 -6.81682 40288 ft 464 kts 271°
2026-04-26 12:34 50.96739 -6.91904 40291 ft 465 kts 271°
2026-04-26 12:34 50.97091 -7.02143 40295 ft 465 kts 271°
2026-04-26 12:35 50.97434 -7.12333 40291 ft 465 kts 271°
2026-04-26 12:35 50.97769 -7.22589 40296 ft 466 kts 271°
2026-04-26 12:36 50.98098 -7.32926 40293 ft 466 kts 271°
2026-04-26 12:36 50.98415 -7.43205 40296 ft 467 kts 271°
2026-04-26 12:37 50.98724 -7.53494 40288 ft 467 kts 271°
2026-04-26 12:37 50.99023 -7.63733 40294 ft 467 kts 271°
2026-04-26 12:38 50.99314 -7.74032 40292 ft 468 kts 271°
2026-04-26 12:38 50.99597 -7.84343 40295 ft 468 kts 271°
2026-04-26 12:39 50.99871 -7.94674 40292 ft 468 kts 271°
2026-04-26 12:39 51.00782 -8.04922 40290 ft 471 kts 280°
2026-04-26 12:40 51.02267 -8.15070 40291 ft 472 kts 282°
2026-04-26 12:40 51.03827 -8.25202 40295 ft 472 kts 282°
2026-04-26 12:41 51.05117 -8.33634 40299 ft 473 kts 282°
2026-04-26 12:41 51.06647 -8.43791 40299 ft 473 kts 281°
2026-04-26 12:42 51.08164 -8.53976 40296 ft 473 kts 281°
2026-04-26 12:42 51.09673 -8.64178 40302 ft 474 kts 281°
2026-04-26 12:43 51.11173 -8.74388 40296 ft 474 kts 281°
2026-04-26 12:43 51.12667 -8.84618 40298 ft 475 kts 281°
2026-04-26 12:44 51.13560 -8.94978 40303 ft 472 kts 270°
2026-04-26 12:44 51.13684 -9.05433 40305 ft 472 kts 269°
2026-04-26 12:45 51.13686 -9.15884 40301 ft 472 kts 268°
2026-04-26 12:45 51.13675 -9.26354 40301 ft 472 kts 269°
2026-04-26 12:46 51.13670 -9.36744 40304 ft 473 kts 269°
2026-04-26 12:46 51.13663 -9.47203 40303 ft 473 kts 269°
2026-04-26 12:47 51.13648 -9.57669 40302 ft 472 kts 269°
2026-04-26 12:47 51.13623 -9.68078 40304 ft 473 kts 269°
2026-04-26 12:48 51.13588 -9.78569 40304 ft 473 kts 269°
2026-04-26 12:48 51.13544 -9.89026 40306 ft 473 kts 269°
2026-04-26 12:49 51.13491 -9.99510 40308 ft 473 kts 269°
2026-04-26 12:49 51.13428 -10.09915 40308 ft 473 kts 269°
2026-04-26 12:50 51.13356 -10.20407 40312 ft 473 kts 269°
2026-04-26 12:50 51.13275 -10.30900 40313 ft 474 kts 269°
2026-04-26 12:51 51.13186 -10.41164 40315 ft 474 kts 269°
2026-04-26 12:51 51.13086 -10.51666 40316 ft 474 kts 269°
2026-04-26 12:52 51.12976 -10.62180 40317 ft 475 kts 269°
2026-04-26 12:52 51.12856 -10.72699 40316 ft 476 kts 269°
2026-04-26 12:53 51.12728 -10.83228 40318 ft 476 kts 268°
2026-04-26 12:53 51.12589 -10.93770 40318 ft 476 kts 268°
2026-04-26 12:54 51.12441 -11.04320 40316 ft 477 kts 268°
2026-04-26 12:54 51.12284 -11.14859 40318 ft 477 kts 268°
2026-04-26 12:55 51.12116 -11.25408 40317 ft 477 kts 268°
2026-04-26 12:55 51.11941 -11.35889 40319 ft 476 kts 268°
2026-04-26 12:56 51.11755 -11.46417 40319 ft 476 kts 268°
2026-04-26 12:56 51.11560 -11.56929 40321 ft 475 kts 268°
2026-04-26 12:57 51.11356 -11.67445 40319 ft 475 kts 268°
2026-04-26 12:57 51.11142 -11.77946 40320 ft 474 kts 268°
2026-04-26 12:58 51.10805 -11.93690 40318 ft 474 kts 268°
2026-04-26 12:58 51.10568 -12.04176 40318 ft 474 kts 268°
2026-04-26 12:59 51.10321 -12.14678 40320 ft 474 kts 268°
2026-04-26 12:59 51.10068 -12.25092 40318 ft 474 kts 268°
2026-04-26 13:00 51.09803 -12.35569 40321 ft 474 kts 268°
2026-04-26 13:00 51.09529 -12.46053 40320 ft 474 kts 268°
2026-04-26 13:01 51.09245 -12.56526 40318 ft 474 kts 268°
2026-04-26 13:01 51.08953 -12.67007 40320 ft 474 kts 268°
2026-04-26 13:02 51.08649 -12.77470 40320 ft 474 kts 268°
2026-04-26 13:02 51.08337 -12.87930 40325 ft 474 kts 267°
2026-04-26 13:03 51.08018 -12.98397 40316 ft 474 kts 267°
2026-04-26 13:03 51.07689 -13.08861 40317 ft 474 kts 267°
2026-04-26 13:04 51.07350 -13.19318 40318 ft 474 kts 267°
2026-04-26 13:04 51.07002 -13.29767 40321 ft 474 kts 267°
2026-04-26 13:05 51.06644 -13.40225 40322 ft 474 kts 267°
2026-04-26 13:05 51.06276 -13.50684 40316 ft 473 kts 267°
2026-04-26 13:06 51.05900 -13.61127 40314 ft 473 kts 267°
2026-04-26 13:06 51.05517 -13.71502 40316 ft 473 kts 267°
2026-04-26 13:07 51.05123 -13.81928 40314 ft 473 kts 267°
2026-04-26 13:07 51.04719 -13.92351 40314 ft 473 kts 266°
2026-04-26 13:08 51.04306 -14.02773 40313 ft 472 kts 266°
2026-04-26 13:08 51.03884 -14.13193 40313 ft 472 kts 266°
2026-04-26 13:09 51.03454 -14.23592 40312 ft 472 kts 266°
2026-04-26 13:09 51.03014 -14.33986 40312 ft 471 kts 266°
2026-04-26 13:10 51.02566 -14.44375 40312 ft 471 kts 266°
2026-04-26 13:10 51.02338 -14.49555 40196 ft 470 kts 266°
2026-04-26 13:10 51.02109 -14.54728 39950 ft 469 kts 266°
2026-04-26 13:11 51.01878 -14.59884 39720 ft 468 kts 266°
2026-04-26 13:11 51.01645 -14.65042 39495 ft 468 kts 266°
2026-04-26 13:11 51.01410 -14.70199 39336 ft 468 kts 266°
2026-04-26 13:11 51.01172 -14.75350 39309 ft 468 kts 266°
2026-04-26 13:12 51.00783 -14.85651 39306 ft 467 kts 271°
2026-04-26 13:12 51.01733 -14.95795 39307 ft 465 kts 288°
2026-04-26 13:13 51.04337 -15.05168 39304 ft 464 kts 294°
2026-04-26 13:13 51.06714 -15.14637 39304 ft 464 kts 290°
2026-04-26 13:14 51.08941 -15.24268 39306 ft 464 kts 290°
2026-04-26 13:14 51.11098 -15.33926 39305 ft 463 kts 289°
2026-04-26 13:15 51.13235 -15.43595 39304 ft 463 kts 289°
2026-04-26 13:15 51.15022 -15.51703 39306 ft 463 kts 289°
2026-04-26 13:16 51.17491 -15.62936 39306 ft 462 kts 289°
2026-04-26 13:16 51.19607 -15.72607 39306 ft 462 kts 289°
2026-04-26 13:17 51.22763 -15.87114 39305 ft 461 kts 289°
2026-04-26 13:18 51.25894 -16.01611 39305 ft 460 kts 289°
2026-04-26 13:19 51.28998 -16.16084 39304 ft 459 kts 289°
2026-04-26 13:19 51.31054 -16.25727 39303 ft 458 kts 289°
2026-04-26 13:20 51.33098 -16.35363 39305 ft 457 kts 289°
2026-04-26 13:20 51.35132 -16.44994 39302 ft 457 kts 289°
2026-04-26 13:21 51.37156 -16.54625 39302 ft 456 kts 289°
2026-04-26 13:21 51.39154 -16.64175 39299 ft 455 kts 289°
2026-04-26 13:22 51.41155 -16.73791 39297 ft 454 kts 289°
2026-04-26 13:22 51.43144 -16.83390 39295 ft 454 kts 288°
2026-04-26 13:23 51.45123 -16.92988 39299 ft 453 kts 288°
2026-04-26 13:23 51.47094 -17.02594 39295 ft 453 kts 288°
2026-04-26 13:24 51.49053 -17.12191 39293 ft 453 kts 288°
2026-04-26 13:24 51.51006 -17.21800 39297 ft 453 kts 288°
2026-04-26 13:25 51.52950 -17.31415 39289 ft 452 kts 288°
2026-04-26 13:25 51.54885 -17.41034 39293 ft 452 kts 288°
2026-04-26 13:26 51.56811 -17.50651 39291 ft 452 kts 288°
2026-04-26 13:26 51.58727 -17.60268 39293 ft 452 kts 288°
2026-04-26 13:27 51.60622 -17.69826 39293 ft 451 kts 288°
2026-04-26 13:27 51.62522 -17.79458 39293 ft 451 kts 287°
2026-04-26 13:28 51.64411 -17.89082 39292 ft 451 kts 287°
2026-04-26 13:28 51.66292 -17.98713 39289 ft 451 kts 287°
2026-04-26 13:29 51.68165 -18.08350 39292 ft 451 kts 287°
2026-04-26 13:29 51.70030 -18.17994 39293 ft 451 kts 287°
2026-04-26 13:30 51.71885 -18.27638 39296 ft 450 kts 287°
2026-04-26 13:30 51.73733 -18.37294 39288 ft 450 kts 287°
2026-04-26 13:31 51.75572 -18.46950 39291 ft 450 kts 287°
2026-04-26 13:31 51.77401 -18.56606 39291 ft 450 kts 287°
2026-04-26 13:32 51.78914 -18.64628 39291 ft 449 kts 287°
2026-04-26 13:32 51.80727 -18.74287 39289 ft 449 kts 287°
2026-04-26 13:33 51.82531 -18.83951 39287 ft 449 kts 287°
2026-04-26 13:33 51.84327 -18.93622 39288 ft 449 kts 287°
2026-04-26 13:34 51.86114 -19.03291 39285 ft 449 kts 287°